When you browse on this site, cookies collect data to enhance your experience and personalize the content and advertising you see.
Visit our Privacy Policy to learn more. By continuing to use the site, you agree to this use of cookies and data.
  • In Hungary
  • List of Countries
  • For 7 days
  • Water Temperature
  • Satellite Maps
  • Weather Map
  • News
  • Weather Widgets
  • user-avatar
    Login

    Hourly Weather Ohtyrka

    Today, 18 November, Sunday

    Time Temperature Precipitation Wind Pressure Humidity
    00:00 -1°C° 0 mm 1 mps 763 mmHg 42%
    01:00 -1°C° 0 mm 1 mps 763 mmHg 42%
    02:00 -2°C° 0 mm 0 mps 762 mmHg 42%
    03:00 -2°C° 0 mm 0 mps 762 mmHg 42%
    04:00 -2°C° 0 mm 0 mps 761 mmHg 42%
    05:00 -2°C° 0 mm 0 mps 761 mmHg 42%
    06:00 -2°C° 0 mm 0 mps 761 mmHg 42%
    07:00 -2°C° 0 mm 0 mps 760 mmHg 41%
    08:00 -2°C° 0 mm 0 mps 760 mmHg 41%
    09:00 +1°C° 0 mm 1 mps 760 mmHg 38%
    10:00 +2°C° 0 mm 1 mps 759 mmHg 35%
    11:00 +3°C° 0 mm 1 mps 759 mmHg 32%
    12:00 +3°C° 0 mm 1 mps 759 mmHg 32%
    13:00 +3°C° 0 mm 1 mps 758 mmHg 32%
    14:00 +4°C° 0 mm 1 mps 758 mmHg 33%
    15:00 +2°C° 0 mm 1 mps 758 mmHg 36%
    16:00 +1°C° 0 mm 1 mps 758 mmHg 40%
    17:00 0°C° 0 mm 1 mps 758 mmHg 43%
    18:00 0°C° 0 mm 1 mps 758 mmHg 44%
    19:00 -1°C° 0 mm 0 mps 758 mmHg 44%
    20:00 -2°C° 0 mm 0 mps 758 mmHg 45%
    21:00 -2°C° 0 mm 0 mps 758 mmHg 45%
    22:00 -2°C° 0 mm 0 mps 758 mmHg 45%
    23:00 -1°C° 0 mm 1 mps 758 mmHg 45%

    Tomorrow, 19 November, Monday

    Time Temperature Precipitation Wind Pressure Humidity
    00:00 -1°C° 0 mm 1 mps 758 mmHg 45%
    01:00 -1°C° 0 mm 1 mps 758 mmHg 45%
    02:00 -1°C° 0 mm 1 mps 758 mmHg 45%
    03:00 -1°C° 0 mm 1 mps 758 mmHg 45%
    04:00 -3°C° 0 mm 2 mps 758 mmHg 46%
    05:00 -3°C° 0 mm 2 mps 758 mmHg 46%
    06:00 -3°C° 0 mm 2 mps 759 mmHg 45%
    07:00 -3°C° 0 mm 2 mps 759 mmHg 44%
    08:00 -3°C° 0 mm 2 mps 759 mmHg 43%
    09:00 -1°C° 0 mm 3 mps 759 mmHg 40%
    10:00 0°C° 0 mm 3 mps 759 mmHg 37%
    11:00 +1°C° 0 mm 3 mps 759 mmHg 33%
    12:00 +1°C° 0 mm 3 mps 759 mmHg 34%
    13:00 +1°C° 0 mm 3 mps 759 mmHg 34%
    14:00 +1°C° 0 mm 3 mps 759 mmHg 34%
    15:00 +1°C° 0 mm 3 mps 759 mmHg 36%
    16:00 -1°C° 0 mm 4 mps 758 mmHg 39%
    17:00 -2°C° 0 mm 4 mps 758 mmHg 41%
    18:00 -2°C° 0 mm 4 mps 758 mmHg 41%
    19:00 -2°C° 0 mm 4 mps 758 mmHg 42%
    20:00 -2°C° 0 mm 5 mps 758 mmHg 42%
    21:00 -2°C° 0 mm 5 mps 758 mmHg 43%
    22:00 -2°C° 0 mm 5 mps 758 mmHg 45%
    23:00 -2°C° 0 mm 5 mps 758 mmHg 46%

    Day after tomorrow, 20 November, Tuesday

    Time Temperature Precipitation Wind Pressure Humidity
    00:00 -2°C° 0 mm 5 mps 758 mmHg 48%
    01:00 -2°C° 0 mm 5 mps 758 mmHg 49%
    02:00 -2°C° 0 mm 5 mps 758 mmHg 51%
    03:00 -4°C° 0 mm 6 mps 758 mmHg 53%
    04:00 -4°C° 0 mm 6 mps 758 mmHg 56%
    05:00 -4°C° 0 mm 6 mps 757 mmHg 58%
    06:00 -4°C° 0.1 mm 6 mps 758 mmHg 59%
    07:00 -4°C° 0.1 mm 6 mps 758 mmHg 60%
    08:00 -4°C° 0.1 mm 6 mps 758 mmHg 61%
    09:00 -3°C° 0 mm 6 mps 758 mmHg 58%
    10:00 -2°C° 0 mm 6 mps 758 mmHg 55%
    11:00 -2°C° 0 mm 6 mps 758 mmHg 52%
    12:00 -1°C° 0 mm 5 mps 758 mmHg 50%
    13:00 0°C° 0 mm 5 mps 758 mmHg 49%
    14:00 0°C° 0 mm 5 mps 758 mmHg 47%
    15:00 -1°C° 0 mm 5 mps 758 mmHg 50%
    16:00 -2°C° 0 mm 4 mps 758 mmHg 54%
    17:00 -3°C° 0 mm 4 mps 758 mmHg 58%
    18:00 -3°C° 0 mm 4 mps 758 mmHg 63%
    19:00 -3°C° 0 mm 4 mps 758 mmHg 68%
    20:00 -4°C° 0 mm 4 mps 758 mmHg 73%
    21:00 -4°C° 0 mm 3 mps 758 mmHg 77%
    22:00 -4°C° 0 mm 3 mps 758 mmHg 82%
    23:00 -4°C° 0 mm 3 mps 758 mmHg 86%

    21 November, Wednesday

    Time Temperature Precipitation Wind Pressure Humidity
    00:00 -4°C° 0 mm 3 mps 758 mmHg 88%
    01:00 -5°C° 0 mm 3 mps 758 mmHg 90%
    02:00 -4°C° 0 mm 2 mps 758 mmHg 91%
    03:00 -5°C° 0 mm 3 mps 758 mmHg 91%
    04:00 -5°C° 0 mm 3 mps 758 mmHg 92%
    05:00 -5°C° 0 mm 3 mps 758 mmHg 92%
    06:00 -5°C° 0 mm 3 mps 758 mmHg 91%
    07:00 -5°C° 0 mm 3 mps 758 mmHg 90%
    08:00 -5°C° 0 mm 3 mps 758 mmHg 88%
    09:00 -4°C° 0 mm 3 mps 758 mmHg 82%
    10:00 -2°C° 0 mm 3 mps 758 mmHg 75%
    11:00 -1°C° 0 mm 3 mps 758 mmHg 69%
    12:00 0°C° 0 mm 3 mps 758 mmHg 67%
    13:00 0°C° 0 mm 3 mps 758 mmHg 66%
    14:00 0°C° 0 mm 3 mps 758 mmHg 65%
    15:00 -1°C° 0 mm 3 mps 758 mmHg 69%
    16:00 -2°C° 0 mm 3 mps 758 mmHg 74%
    17:00 -4°C° 0 mm 3 mps 758 mmHg 79%
    18:00 -4°C° 0 mm 3 mps 758 mmHg 79%
    19:00 -4°C° 0 mm 3 mps 758 mmHg 80%
    20:00 -4°C° 0 mm 3 mps 758 mmHg 80%
    21:00 -4°C° 0 mm 2 mps 758 mmHg 80%
    22:00 -4°C° 0 mm 2 mps 758 mmHg 80%
    23:00 -4°C° 0 mm 2 mps 759 mmHg 80%

    22 November, Thursday

    Time Temperature Precipitation Wind Pressure Humidity
    00:00 -4°C° 0 mm 2 mps 759 mmHg 80%
    01:00 -4°C° 0 mm 2 mps 759 mmHg 80%
    02:00 -4°C° 0 mm 2 mps 759 mmHg 79%
    03:00 -4°C° 0 mm 2 mps 758 mmHg 81%
    04:00 -5°C° 0 mm 2 mps 758 mmHg 82%
    05:00 -5°C° 0 mm 2 mps 758 mmHg 83%
    06:00 -5°C° 0 mm 2 mps 759 mmHg 83%
    07:00 -5°C° 0 mm 2 mps 759 mmHg 83%
    08:00 -5°C° 0 mm 2 mps 759 mmHg 84%
    09:00 -3°C° 0 mm 2 mps 759 mmHg 76%
    10:00 -2°C° 0 mm 2 mps 759 mmHg 69%
    11:00 -1°C° 0 mm 2 mps 759 mmHg 62%
    12:00 -1°C° 0 mm 2 mps 759 mmHg 61%
    13:00 -1°C° 0 mm 3 mps 759 mmHg 59%
    14:00 -1°C° 0 mm 3 mps 759 mmHg 58%
    15:00 -2°C° 0 mm 3 mps 759 mmHg 63%
    16:00 -4°C° 0 mm 3 mps 759 mmHg 68%
    17:00 -4°C° 0 mm 3 mps 758 mmHg 73%
    18:00 -5°C° 0 mm 3 mps 759 mmHg 75%
    19:00 -5°C° 0 mm 3 mps 759 mmHg 77%
    20:00 -5°C° 0 mm 3 mps 759 mmHg 79%
    21:00 -5°C° 0 mm 3 mps 759 mmHg 81%
    22:00 -5°C° 0 mm 3 mps 759 mmHg 83%
    23:00 -5°C° 0 mm 3 mps 759 mmHg 85%

    23 November, Friday

    Time Temperature Precipitation Wind Pressure Humidity
    00:00 -5°C° 0 mm 3 mps 759 mmHg 87%
    01:00 -6°C° 0 mm 3 mps 759 mmHg 89%
    02:00 -6°C° 0 mm 3 mps 759 mmHg 91%
    03:00 -6°C° 0 mm 3 mps 760 mmHg 92%
    04:00 -5°C° 0 mm 2 mps 760 mmHg 93%
    05:00 -5°C° 0 mm 2 mps 760 mmHg 95%
    06:00 -5°C° 0 mm 2 mps 760 mmHg 94%
    07:00 -5°C° 0 mm 2 mps 761 mmHg 94%
    08:00 -5°C° 0 mm 2 mps 761 mmHg 94%
    09:00 -4°C° 0 mm 2 mps 761 mmHg 87%
    10:00 -3°C° 0 mm 2 mps 761 mmHg 80%
    11:00 0°C° 0 mm 1 mps 762 mmHg 74%
    12:00 +1°C° 0 mm 1 mps 762 mmHg 72%
    13:00 +1°C° 0 mm 1 mps 762 mmHg 70%
    14:00 +2°C° 0 mm 1 mps 762 mmHg 68%
    15:00 +1°C° 0 mm 1 mps 762 mmHg 73%
    16:00 0°C° 0 mm 1 mps 762 mmHg 78%
    17:00 -1°C° 0 mm 1 mps 762 mmHg 83%
    18:00 -1°C° 0 mm 1 mps 762 mmHg 84%
    19:00 -2°C° 0 mm 1 mps 762 mmHg 85%
    20:00 -2°C° 0 mm 1 mps 762 mmHg 86%
    21:00 -2°C° 0 mm 1 mps 762 mmHg 87%
    22:00 -2°C° 0 mm 1 mps 762 mmHg 88%
    23:00 -2°C° 0 mm 1 mps 762 mmHg 88%
    Show more